ATLAS 5 CENTAUR DEB, 45474

Orbit data source: Space-Track

ATLAS 5 CENTAUR DEB, 45474 is space debris in HEO originally from a launch on Wed, 17 Oct 2018 UTC launched from the Air Force Eastern Test Range (AFETR). Debris objects in space refer to the collection of defunct objects orbiting the Earth. Examples of debris include non-operational satellites, rocket bodies, and fragments generated from explosions, collisions, or faulty payload assembly.

Loading next visibility...
Identifier
45474, 2018-079BW
Orbit
HEO
Country
Flag of USUS
Related business
Flag of USUnited Launch Alliance/Lockheed Martin (US)
Manufacturer
ULA Decatur
Mission
Spacecraft
Bus & Motor
Unknown
Mass
Unknown
Launch date (UTC)
2018-10-17 (8 years ago)
Launch vehicle
Unknown
Launch site
Air Force Eastern Test Range (AFETR)
Object type
Payload
Rocket body
Debris
Shape & HBR
Unknown shape, 1.1 m
Radar Cross Section
RCS unknown

Expand to show TLE details & history
Last TLE update: 1 day ago

TLE from 1 day ago
0 ATLAS 5 CENTAUR DEB
1 45474U 18079BW  26125.32298973 -.00000076  00000-0  00000-0 0  9992
2 45474  13.0154  65.7544 4465765 248.5179  59.0461  1.74190990 42241
Epoch: 2026-05-05T07:45Z
TLE epoch observation values (Epoch: 2026-05-05T07:45:06.312Z)
Latitude
-0.00001°
Longitude
86.17208°
Altitude
21,551.707 km
Speed
3.858 km/s
True Right ascension
04h 22m 35s
True Declination
0° 00' 00"
Sunlit
Object was in daylight at epoch
Visualization orbit readout
Latitude
Unknown
Longitude
Unknown
Altitude
Unknown
Speed
Unknown
Apparent Right ascension
Unknown
Apparent Declination
Unknown
Sunlit
N/A
Visualization observer readout
Local Sidereal Time
21:42:12
Azimuth
Unknown
Elevation
Unknown
Doppler factor
Unknown
Orbital elements
Apogee altitude
35,832.512 km
Perigee altitude
9,770.587 km
Semi-major axis
29,179.687 km
Eccentricity
0.44658
Inclination
13.0154°
RAAN
65.7544°
Arg. of periapsis
248.5179°
True anomaly
111.50953°
Mean anomaly
59.0461°
Eccentric anomaly
84.51593°
Mean motion
0.43543 °/min
Orbital period
826.76 mins
BSTAR
0
Loading maneuver chart data...
Computing Atmospheric mass density...

Documentation

Showing up to 5 results
|